sat.trackr.live / text

‹ back to catalog

STARLINK-37235

NORAD 69154 · 2026-111G

PAYLOAD ACTIVE UNKNOWN

§ Identity

Operator
Country
US
Launch date
2026-05-21
Launch site
AFETR
Launch vehicle
Mass (kg)
RCS (m²)

Purposes: comms

External: N2YO · Heavens-Above · Gunter

§ Orbital elements

Epoch: 2026-09-20T03:47:18.233088Z

Period
93.85 min
Inclination
53.1583°
Eccentricity
0.0001237
Mean motion
15.34405213 rev/d
Perigee alt
461.8 km
Apogee alt
463.5 km
Semi-major
6,840.8 km
B*
4.4625e-4
RAAN
67.5348°
Arg perigee
75.9048°
Mean anomaly
284.2092°
Rev number
1,884

§ Raw data

STARLINK-372351 69154U 26111G   26263.15784992  .00014733  00000+0  44625-3 0  99912 69154  53.1583  67.5348 0001237  75.9048 284.2092 15.34405213 18847

JSON: /api/v1/satellites/69154 · /tle

For live sub-satellite position, see the globe view (requires WebGL).

§ Visibility from observer

Set your observer location to see the next 7 days of passes ≥ 10°. The values pass through the URL so the page stays shareable.

No JS? Fill the form by hand. The geolocation button needs JavaScript.